Weather History for KBGR - May, 2013

Change the Weather History Date:

Wednesday, May 15, 2013

  Actual Average Record
Temperature  
Mean Temperature 47 °F 54 °F  
Max Temperature 63 °F 65 °F 85 °F (2004)
Min Temperature 31 °F 42 °F 27 °F (1947)
Degree Days  
Heating Degree Days 18 12  
Month to date heating degree days 176 210  
Since 1 July heating degree days 7271 7608  
Cooling Degree Days 0 0  
Month to date cooling degree days 0 0  
Year to date cooling degree days 0 0  
Moisture  
Dew Point 34 °F    
Average Humidity 59    
Maximum Humidity 93    
Minimum Humidity 25    
Precipitation  
Precipitation 0.16 in 0.11 in 1.55 in (1948)
Month to date precipitation 0.99 1.68  
Year to date precipitation 7.72 14.09  
Snow  
Snow 0.00 in 0.00 in 0.00 in (2002)
Month to date snowfall 0.0 0.1  
Since 1 July snowfall 74.3 66.2  
Snow Depth 0.00 in    
Sea Level Pressure  
Sea Level Pressure 29.88 in    
Wind  
Wind Speed 7 mph (SSW)    
Max Wind Speed 25 mph    
Max Gust Speed 33 mph    
Visibility 9 miles    
Events Rain    
T = Trace of Precipitation, MM = Missing Value Source: NWS Daily Summary

Daily Weather History Graph

Daily Weather History Graph

Search for Another Location

Airport or City:

Trip Planner

Search our weather history database for the weather conditions in past years. The results will help you decide how hot, cold, wet, or windy it might be!

Date:

Astronomy

May. 15, 2013 Rise Set
Actual Time 5:06 AM EDT 7:57 PM EDT
Civil Twilight 4:32 AM EDT 8:31 PM EDT
Nautical Twilight 3:49 AM EDT 9:14 PM EDT
Astronomical Twilight 2:58 AM EDT 10:06 PM EDT
Moon 9:41 AM EDT (5/15) No Moon Set
Length of Visible Light 15h 58m
Length of Day
14h 50m
Waxing Crescent, 26% of the Moon is Illuminated
May 15
Waxing Crescent
May 18
First Quarter
May 25
Full
May 31
Last Quarter
Jun 8
New

Hourly Weather History & Observations

Time (EDT) Temp. Windchill Dew Point Humidity Pressure Visibility Wind Dir Wind Speed Gust Speed Precip Events Conditions
12:53 AM 39.0 °F - 30.0 °F 70% 29.98 in 10.0 mi Calm Calm - 0.00 in   Clear
1:53 AM 37.9 °F 32.7 °F 32.0 °F 79% 29.97 in 10.0 mi West 6.9 mph - N/A   Scattered Clouds
2:53 AM 36.0 °F 33.3 °F 32.0 °F 86% 29.98 in 10.0 mi West 3.5 mph - N/A   Partly Cloudy
3:53 AM 35.1 °F - 30.9 °F 85% 29.97 in 10.0 mi Calm Calm - 0.00 in   Clear
4:53 AM 32.0 °F - 30.0 °F 92% 29.97 in 10.0 mi Calm Calm - N/A   Partly Cloudy
5:53 AM 35.1 °F 31.0 °F 30.9 °F 85% 29.98 in 10.0 mi SW 4.6 mph - N/A   Partly Cloudy
6:53 AM 41.0 °F 36.4 °F 33.1 °F 73% 29.99 in 10.0 mi WSW 6.9 mph - N/A   Partly Cloudy
7:53 AM 46.0 °F 43.9 °F 32.0 °F 58% 29.99 in 10.0 mi West 4.6 mph - N/A   Partly Cloudy
8:53 AM 51.1 °F - 32.0 °F 48% 29.98 in 10.0 mi SW 5.8 mph - N/A   Clear
9:53 AM 55.0 °F - 30.0 °F 38% 29.97 in 10.0 mi WNW 5.8 mph - N/A   Partly Cloudy
10:53 AM 57.0 °F - 30.9 °F 37% 29.95 in 10.0 mi WSW 8.1 mph - N/A   Partly Cloudy
11:53 AM 59.0 °F - 27.0 °F 29% 29.93 in 10.0 mi SSW 4.6 mph - N/A   Scattered Clouds
12:53 PM 61.0 °F - 27.0 °F 27% 29.90 in 10.0 mi SSW 8.1 mph 16.1 mph N/A   Scattered Clouds
1:53 PM 63.0 °F - 27.0 °F 26% 29.87 in 10.0 mi South 11.5 mph 17.3 mph N/A   Scattered Clouds
2:53 PM 61.0 °F - 27.0 °F 27% 29.85 in 10.0 mi South 17.3 mph 25.3 mph N/A   Scattered Clouds
3:53 PM 57.9 °F - 26.1 °F 30% 29.83 in 10.0 mi South 18.4 mph 27.6 mph N/A   Mostly Cloudy
4:53 PM 57.0 °F - 28.0 °F 33% 29.83 in 10.0 mi South 13.8 mph 25.3 mph N/A   Overcast
5:53 PM 54.0 °F - 28.9 °F 38% 29.81 in 10.0 mi South 16.1 mph 25.3 mph N/A   Overcast
6:53 PM 53.1 °F - 33.1 °F 47% 29.80 in 10.0 mi South 13.8 mph 21.9 mph N/A   Overcast
7:53 PM 51.1 °F - 41.0 °F 68% 29.80 in 8.0 mi South 16.1 mph 23.0 mph 0.00 in Rain Light Rain
8:53 PM 48.0 °F - 45.0 °F 89% 29.78 in 5.0 mi South 10.4 mph - 0.06 in Rain Light Rain
9:21 PM 48.2 °F - 46.4 °F 93% 29.75 in 5.0 mi SSE 9.2 mph - 0.04 in Rain Light Rain
9:32 PM 48.2 °F - 46.4 °F 93% 29.76 in 4.0 mi South 10.4 mph - 0.06 in Rain Light Rain
9:53 PM 48.0 °F - 46.9 °F 96% 29.75 in 5.0 mi South 10.4 mph - 0.08 in Rain Light Rain
10:53 PM 48.0 °F - 46.0 °F 93% 29.71 in 5.0 mi South 17.3 mph 31.1 mph 0.01 in Rain Light Rain
11:53 PM 46.9 °F - 46.0 °F 97% 29.68 in 3.0 mi South 13.8 mph - 0.00 in   Light Drizzle